User: anonymous   Login
Location: ??
(35.5052°N, 139.7262°E)
Time: 21:22:05
(UTC+00:00)
Language:

Meteor 1-28 Rocket - Orbit

View from above orbital plane
View from above orbital plane
View from above satellite
View from above satellite

Ground track
Ground track

The orbit data is extracted from the following two-line orbital elements,

1 10114U 77057B   21267.16040637  .00000720  00000-0  38738-4 0  9990
2 10114  97.3731  48.0006 0011941 270.8890  89.0976 15.17925234420102
Epoch (UTC): 24 September 2021 03:50:59
Eccentricity: 0.0011941
inclination: 97.3731°
perigee height: 504 km
apogee height: 520 km
right ascension of ascending node: 48.0006°
argument of perigee: 270.8890°
revolutions per day: 15.17925234
mean anomaly at epoch: 89.0976°
orbit number at epoch: 42010

The dashed part of the orbit path shows where the satellite is in the earth's shadow,  

DLR